Location: Sungai Buloh
(3.1000°N, 113.0000°E)
Time: 16:58:55
(UTC+00:00)

Lacrosse 4 Rocket - Pass Details

Date: 12 January 2026
Orbit: 513 x 564 km, 68.0° (Epoch: 11 February)

Event Time Altitude Azimuth Distance (km) Brightness Sun altitude
Rises 21:28:14 0° 177° (S) 2,722 5.2 -17.0°
Reaches altitude 10° 21:30:47 10° 162° (SSE) 1,817 4.5 -16.4°
Maximum altitude 21:34:02 23° 109° (ESE) 1,172 4.0 -15.7°
Drops below altitude 10° 21:37:15 10° 55° (NE) 1,786 4.4 -14.9°
Sets 21:39:44 0° 40° (NE) 2,664 5.1 -14.3°
